User: anonymous
Location: Unspecified
(0.0000°N, 0.0000°E)
Time: 23:59:35
(UTC+02:00)
Language:

GPS 2-05 Rocket1 - Orbit

View from above orbital plane
View from above orbital plane
View from above satellite
View from above satellite

Ground track
Ground track

The orbit data is extracted from the following two-line orbital elements,

1 20362U 89097B   14263.19135521  .00011205  00000-0  38193-3 0  5227
2 20362 035.6225 169.4550 0108742 230.3027 258.1397 15.24059129345383
Epoch (UTC): 20 September 2014 04:35:33
Eccentricity: 0.0108742
inclination: 35.6225°
perigee height: 419 km
apogee height: 568 km
right ascension of ascending node: 169.4550°
argument of perigee: 230.3027°
revolutions per day: 15.24059129
mean anomaly at epoch: 258.1397°
orbit number at epoch: 34538

The dashed part of the orbit path shows where the satellite is in the earth's shadow,  

DLR